Temperature
-0 -0 -0 -0 -0 0 -0 0 0 0 0 0 0 0 1 1 1 1 1 1 1 1 2 2 2 2 2 3 3 3 3 3 3 4 4 4 5 5 6 6 6 6 7
-1 -1 -1 -1 -1 -1 -1 -0 -0 -0 -0 -0 -0 -0 0 0 0 0 1 1 1 1 1 1 2 2 2 2 2 2 3 3 3 3 4 4 4 5 5 5 6 6 6
-2 -2 -2 -1 -1 -1 -1 -1 -1 -1 -1 -1 -1 -1 -1 -0 -0 0 0 0 1 1 1 1 1 1 1 2 2 2 2 3 3 3 3 3 4 4 4 5 5 5 6
-3 -2 -2 -2 -2 -2 -2 -1 -1 -1 -1 -1 -1 -1 -1 -1 -1 -1 -0 -0 0 0 1 1 1 1 1 1 2 2 2 2 2 2 2 3 3 3 4 4 5 5 5
-3 -3 -3 -3 -3 -3 -2 -2 -2 -2 -2 -2 -2 -2 -2 -2 -1 -1 -1 -1 -0 -0 0 0 1 1 1 1 1 1 2 2 2 2 2 2 2 3 3 4 4 4 4
-4 -4 -4 -3 -3 -3 -3 -3 -3 -3 -3 -3 -3 -3 -3 -2 -2 -2 -2 -1 -1 -1 -1 -0 -0 0 1 1 1 1 1 1 1 1 2 2 2 2 3 3 3 3 3
-5 -4 -4 -4 -4 -4 -4 -4 -4 -4 -4 -3 -3 -3 -3 -3 -3 -2 -2 -2 -2 -2 -1 -1 -1 -0 -0 0 0 0 1 1 1 1 1 1 2 2 2 2 2 2 2
-5 -5 -5 -5 -5 -5 -5 -5 -4 -4 -4 -4 -4 -4 -4 -3 -3 -3 -3 -3 -2 -2 -2 -2 -1 -1 -1 -1 -0 -0 -0 0 0 1 1 1 1 1 2 2 2 2 2
-6 -6 -6 -6 -5 -5 -5 -5 -5 -5 -5 -5 -5 -4 -4 -4 -4 -4 -3 -3 -3 -3 -2 -2 -2 -2 -1 -1 -1 -1 -1 -0 -0 -0 0 0 0 1 1 1 1 1 1
-6 -6 -6 -6 -6 -6 -6 -6 -6 -6 -6 -5 -5 -5 -5 -5 -4 -4 -4 -4 -4 -3 -3 -3 -3 -2 -2 -2 -2 -2 -1 -1 -1 -1 -1 -0 -0 0 0 0 0 0 0
-7 -7 -7 -7 -7 -7 -7 -7 -6 -6 -6 -6 -6 -6 -6 -5 -5 -5 -4 -4 -4 -4 -4 -3 -3 -3 -3 -3 -2 -2 -2 -2 -2 -1 -1 -1 -1 -1 -1 -0 -0 -0 -0
-7 -7 -8 -7 -8 -7 -7 -7 -7 -7 -7 -7 -7 -6 -6 -6 -6 -5 -5 -5 -5 -5 -4 -4 -4 -4 -4 -3 -3 -3 -3 -2 -2 -2 -2 -2 -2 -1 -1 -1 -1 -1 -1
-8 -8 -8 -8 -8 -8 -8 -8 -8 -8 -8 -7 -7 -7 -7 -6 -6 -6 -6 -5 -5 -5 -5 -5 -5 -4 -4 -4 -4 -3 -3 -3 -3 -3 -3 -3 -2 -2 -2 -2 -2 -2 -2
-8 -8 -8 -8 -8 -8 -8 -8 -8 -8 -8 -8 -8 -8 -7 -7 -7 -7 -6 -6 -6 -6 -6 -5 -5 -5 -5 -4 -4 -4 -4 -4 -4 -4 -3 -3 -3 -3 -3 -3 -2 -2 -3
-9 -9 -9 -9 -9 -9 -9 -9 -9 -8 -8 -8 -8 -8 -8 -8 -7 -7 -7 -7 -7 -6 -6 -6 -6 -6 -5 -5 -5 -5 -5 -4 -4 -4 -4 -4 -4 -4 -3 -3 -3 -3 -3
-9 -9 -9 -9 -9 -9 -9 -9 -9 -9 -8 -8 -8 -8 -8 -8 -8 -7 -7 -7 -7 -7 -6 -6 -6 -6 -6 -6 -6 -6 -6 -5 -5 -5 -5 -5 -5 -4 -4 -4 -4 -4 -4
-10 -10 -10 -10 -10 -10 -9 -9 -9 -9 -9 -9 -9 -9 -8 -8 -8 -8 -8 -8 -7 -7 -7 -7 -7 -7 -7 -7 -7 -7 -7 -6 -6 -6 -6 -5 -5 -5 -5 -5 -5 -5 -5
-10 -10 -10 -10 -10 -10 -10 -10 -9 -9 -9 -9 -9 -9 -9 -9 -9 -9 -8 -8 -8 -8 -8 -8 -8 -8 -8 -8 -7 -7 -7 -7 -7 -7 -6 -6 -6 -6 -6 -6 -5 -5 -5
-10 -10 -10 -10 -10 -10 -10 -10 -10 -10 -10 -10 -9 -9 -9 -9 -9 -9 -9 -9 -9 -9 -9 -9 -9 -9 -8 -8 -8 -8 -8 -8 -8 -7 -7 -7 -7 -6 -6 -6 -6 -6 -6
-11 -11 -11 -11 -11 -11 -10 -10 -10 -10 -10 -10 -10 -10 -10 -10 -10 -10 -10 -10 -10 -10 -10 -10 -10 -9 -9 -9 -9 -8 -8 -8 -8 -8 -7 -7 -7 -7 -7 -7 -7 -6 -6
-11 -11 -11 -11 -11 -11 -11 -11 -11 -11 -11 -11 -11 -10 -10 -10 -10 -10 -10 -10 -10 -10 -10 -10 -10 -10 -9 -9 -9 -9 -9 -9 -8 -8 -8 -8 -8 -8 -7 -7 -7 -7 -7
-11 -11 -11 -11 -11 -11 -11 -11 -11 -11 -11 -11 -11 -11 -11 -11 -11 -11 -11 -11 -11 -11 -10 -10 -10 -10 -10 -10 -9 -9 -9 -9 -9 -8 -8 -8 -8 -8 -8 -8 -8 -8 -8
-12 -12 -12 -12 -12 -12 -12 -11 -11 -11 -11 -12 -11 -11 -11 -11 -11 -11 -11 -11 -11 -11 -11 -11 -10 -10 -10 -10 -10 -10 -9 -9 -9 -9 -9 -8 -8 -8 -8 -8 -8 -8 -8
-12 -12 -12 -12 -12 -12 -12 -12 -12 -12 -12 -12 -12 -12 -12 -12 -12 -11 -11 -11 -11 -11 -11 -11 -11 -10 -10 -10 -10 -10 -10 -10 -9 -9 -9 -9 -9 -9 -9 -9 -9 -9 -9
-12 -12 -12 -12 -12 -12 -12 -12 -12 -12 -12 -12 -12 -12 -12 -12 -12 -12 -12 -12 -11 -11 -11 -11 -11 -11 -10 -10 -10 -10 -10 -10 -10 -9 -9 -9 -9 -9 -9 -9 -9 -9 -9
-12 -12 -12 -12 -12 -12 -12 -12 -12 -12 -12 -12 -12 -12 -12 -12 -12 -12 -12 -12 -12 -11 -11 -11 -11 -11 -11 -11 -10 -10 -10 -10 -10 -10 -10 -10 -10 -10 -10 -10 -10 -10 -10
Wind_Speed
7 7 7 7 7 7 7 8 8 8 8 8 8 8 8 9 9 9 10 11 12 11 11 11 12 11 9 9 8 9 9 9 10 9 7 6 7 7 7 9 9 9 10
7 7 7 7 7 7 8 8 7 7 7 7 8 8 8 9 9 9 10 10 11 11 11 11 12 10 11 10 9 10 10 10 9 10 8 7 8 8 7 7 7 8 9
7 7 8 7 7 8 8 8 7 7 7 8 8 9 9 9 9 10 10 10 11 11 11 12 12 12 12 10 10 10 9 9 8 9 8 7 6 6 7 7 7 6 7
7 8 8 8 8 8 8 7 7 7 7 8 8 9 9 9 10 10 10 10 11 11 11 11 11 12 12 11 10 11 10 9 9 9 8 7 7 6 6 6 6 6 5
8 8 9 8 8 8 8 7 7 7 7 8 9 9 9 9 9 10 10 10 11 11 11 11 11 12 12 11 10 11 10 9 9 9 8 8 7 6 7 6 7 5 5
8 9 9 8 8 8 8 7 7 7 7 7 8 9 9 9 10 11 11 10 10 10 11 11 11 12 12 14 14 13 12 11 11 10 9 10 10 8 7 7 6 5 5
8 9 9 8 8 8 7 7 7 7 7 8 8 8 9 10 11 12 12 10 9 10 10 10 9 9 11 12 13 13 12 12 12 12 12 11 10 8 8 9 8 8 7
8 9 8 8 8 8 8 7 7 7 7 7 7 8 9 9 10 11 10 10 9 10 10 10 9 9 9 9 10 10 11 10 10 10 10 10 9 8 9 9 9 6 5
9 9 9 8 8 8 8 8 8 7 7 7 7 7 8 8 9 10 10 8 8 9 9 9 9 9 9 9 9 10 10 9 9 10 10 10 10 10 9 6 7 6 5
9 9 9 8 8 8 8 8 7 7 7 7 7 7 8 8 8 9 9 7 8 8 8 8 9 10 9 9 9 10 10 9 7 7 7 7 8 8 9 9 8 8 5
9 9 9 8 8 8 8 7 7 7 7 7 7 7 8 8 9 9 9 7 7 7 6 6 7 9 10 10 10 9 10 8 7 7 6 6 6 5 6 6 6 7 7
9 9 9 8 7 7 7 7 7 7 7 7 7 7 6 7 7 8 8 8 8 7 7 6 6 8 9 9 8 8 8 7 6 6 6 6 6 5 4 4 4 3 4
8 8 8 8 7 7 7 7 7 6 6 6 6 6 6 5 5 7 8 8 8 7 6 7 7 7 8 7 8 8 7 5 6 6 6 6 5 4 4 3 3 2 1
8 8 7 7 7 7 6 6 6 6 6 6 6 6 5 5 4 4 4 5 6 6 5 5 5 5 5 5 5 5 4 5 5 5 5 4 3 3 4 3 3 3 2
8 7 7 7 7 7 6 6 7 6 7 7 6 5 5 5 5 5 4 4 4 4 4 3 3 3 3 3 3 3 3 3 3 3 3 3 3 3 3 3 3 3 3
7 7 6 6 6 6 6 7 8 8 9 9 8 7 6 7 6 6 5 5 5 4 3 3 3 3 3 3 3 3 3 3 2 2 2 2 2 3 2 2 2 2 3
7 7 6 6 6 6 6 6 7 7 7 8 7 7 7 6 5 5 4 4 4 3 2 2 2 3 3 3 3 3 3 3 2 2 2 2 2 2 2 2 2 2 2
7 7 6 6 6 6 6 6 5 6 6 6 6 6 6 5 5 4 4 3 2 2 2 2 2 2 3 3 3 3 3 3 2 2 2 2 2 2 2 2 2 3 2
6 5 5 6 5 5 5 5 5 5 5 5 4 5 5 5 4 4 3 2 2 2 2 2 2 2 2 3 3 3 2 2 2 2 2 2 2 2 2 2 2 2 2
5 7 7 5 5 5 5 4 4 4 4 4 4 4 4 3 2 2 2 2 2 2 2 2 2 3 3 3 3 2 2 2 2 2 2 1 1 2 2 2 2 2 2
5 6 7 5 4 4 4 4 4 4 4 4 4 4 5 3 2 2 2 2 2 2 2 2 3 3 3 3 3 3 2 2 2 2 1 1 1 2 2 2 2 2 2
5 4 4 4 4 4 4 4 4 4 4 4 4 4 5 3 2 2 2 3 3 3 3 3 3 3 3 3 3 3 2 2 2 2 1 1 2 2 2 2 2 2 2
5 4 4 4 4 5 5 4 4 4 4 4 4 3 3 3 3 3 3 3 3 3 3 3 3 3 3 3 3 3 3 2 2 2 2 2 2 2 2 2 2 2 2
4 4 4 4 4 4 4 4 4 4 4 4 4 3 3 3 3 3 3 3 3 3 3 3 3 4 4 3 3 3 3 2 3 3 3 3 2 2 2 2 2 2 2
4 4 4 4 4 4 4 4 4 4 4 4 4 3 3 3 3 4 4 3 4 4 4 4 3 4 4 4 4 3 3 3 4 3 3 3 3 3 2 2 2 2 2
4 4 4 4 4 4 4 4 4 4 4 4 4 4 4 4 4 4 4 3 3 3 4 4 4 5 5 4 4 4 4 4 4 4 3 2 2 2 2 2 2 2 2
Wind_Direction
305 300 294 290 290 288 283 272 262 260 255 252 253 252 252 251 249 247 247 247 243 243 242 242 242 239 236 237 239 238 241 241 250 259 258 255 247 253 249 243 239 237 234
301 297 293 293 295 292 288 282 273 263 258 253 252 252 250 251 252 251 251 246 242 242 242 242 243 239 236 236 237 239 243 241 246 254 258 255 255 253 252 245 242 238 238
301 298 297 298 297 293 291 288 280 270 263 258 253 252 251 251 251 251 249 245 242 242 242 241 242 241 239 236 238 239 243 242 243 248 252 254 258 252 252 250 247 243 241
305 300 298 298 296 292 290 287 280 274 267 260 256 255 254 252 252 251 249 244 241 242 243 242 242 241 243 240 239 241 240 239 240 241 245 247 252 248 242 241 245 239 239
306 301 301 301 297 293 292 290 283 276 271 266 259 256 257 253 252 250 247 247 243 243 244 243 243 242 245 248 243 243 238 236 237 239 241 244 245 237 237 237 242 242 249
305 304 306 303 299 297 297 296 291 282 276 271 266 261 259 253 256 254 251 250 246 244 246 247 246 244 245 249 246 246 242 234 235 238 240 239 243 242 245 240 234 234 249
305 304 304 302 301 299 299 298 294 290 282 272 268 264 263 262 261 257 254 252 250 249 248 248 248 249 246 247 244 244 244 240 237 237 240 242 244 239 241 242 236 234 243
304 303 304 302 301 302 300 296 293 290 284 278 273 270 267 270 272 263 258 254 256 254 251 249 251 252 248 251 247 245 245 240 237 237 240 243 245 244 239 241 242 244 257
305 305 306 304 301 299 297 296 294 291 287 281 276 274 272 276 279 271 260 253 255 256 255 253 251 252 257 255 250 246 247 246 243 242 248 251 248 246 242 237 227 224 241
306 306 305 303 298 295 294 294 293 290 287 282 278 276 274 275 281 277 263 252 254 256 256 253 251 254 258 253 249 245 245 246 245 248 251 251 244 238 231 228 221 217 225
305 304 303 301 297 293 293 294 295 293 291 283 278 278 276 276 280 278 269 254 252 255 255 256 255 256 254 253 253 252 252 249 241 241 244 245 240 232 228 232 227 219 220
306 304 303 302 299 296 295 296 295 292 289 286 282 279 277 276 277 278 271 265 263 254 255 256 256 257 255 256 253 257 262 253 238 235 237 237 235 233 227 229 228 234 239
306 304 304 304 302 300 297 296 295 291 286 285 284 283 284 282 281 278 275 273 270 263 261 263 267 266 262 257 255 259 256 247 240 234 234 238 236 230 225 222 217 215 239
303 305 305 305 304 303 298 294 291 289 286 282 280 281 283 287 288 285 277 272 268 265 266 268 268 268 268 273 271 260 251 248 245 244 246 246 239 226 225 223 222 210 223
301 303 304 303 302 302 299 295 292 285 285 283 277 277 278 278 286 292 285 278 272 269 272 271 270 261 263 270 275 271 264 256 253 253 251 246 239 231 231 223 216 215 225
301 302 302 302 301 300 301 299 296 293 298 294 287 283 278 280 290 291 291 293 292 284 272 264 262 260 261 266 273 277 270 265 262 267 255 239 237 234 238 238 222 216 216
294 297 299 299 300 300 301 302 305 308 309 310 301 293 293 300 298 299 300 301 303 287 265 261 261 261 263 264 267 268 273 282 278 269 259 241 235 237 231 232 228 226 227
295 296 297 296 298 298 299 299 302 306 312 314 315 315 312 309 311 312 308 307 304 304 283 273 275 275 274 270 272 275 279 283 280 273 264 246 244 237 229 232 233 233 232
299 299 297 295 295 297 299 302 306 306 307 314 324 328 324 316 312 317 319 297 288 291 284 281 278 278 281 277 273 274 276 278 281 278 262 253 249 240 236 241 237 230 236
300 302 306 303 301 303 305 310 311 311 313 319 322 322 324 324 325 325 323 311 295 287 277 275 277 279 278 281 282 278 282 282 279 276 247 235 245 245 241 242 236 228 231
303 306 309 306 306 309 311 312 312 313 314 312 314 324 332 326 320 315 309 299 289 285 280 278 278 281 278 277 281 282 281 279 277 276 248 225 232 243 247 243 242 239 228
305 306 307 308 309 312 312 312 314 313 316 315 317 323 334 330 320 312 307 303 302 295 289 285 284 282 278 274 275 280 278 274 274 274 254 226 229 237 242 240 235 240 226
306 309 313 312 310 312 313 318 319 318 319 321 321 325 329 325 320 315 312 312 310 306 302 292 287 287 289 292 283 273 271 272 270 261 249 235 234 234 235 234 234 237 227
310 312 312 313 315 315 315 318 319 321 322 322 323 325 324 324 323 321 318 314 311 306 304 299 291 295 302 305 303 299 291 290 287 264 247 229 234 236 236 239 242 230 220
315 314 313 313 315 318 319 320 321 322 321 320 319 318 317 318 318 317 315 312 311 309 311 306 300 304 307 303 301 302 306 304 291 273 253 236 229 231 228 227 222 219 217
320 319 316 315 316 317 317 317 319 320 319 319 316 313 312 312 311 312 314 311 308 309 311 308 308 309 310 309 309 312 313 307 294 282 266 247 233 228 222 217 210 209 208
Height
1478 1477 1476 1475 1473 1472 1471 1471 1470 1470 1470 1470 1470 1470 1471 1471 1471 1472 1472 1473 1473 1474 1476 1477 1479 1480 1481 1483 1484 1485 1486 1487 1485 1484 1486 1487 1488 1488 1489 1491 1492 1494 1496
1475 1473 1472 1470 1468 1467 1466 1465 1464 1464 1464 1464 1464 1464 1464 1464 1464 1465 1465 1466 1467 1467 1469 1470 1472 1473 1475 1476 1477 1478 1479 1480 1480 1479 1480 1481 1481 1482 1483 1485 1486 1487 1489
1471 1469 1467 1465 1463 1462 1461 1459 1458 1458 1458 1458 1458 1458 1458 1458 1458 1458 1458 1459 1460 1461 1462 1463 1465 1466 1467 1469 1470 1471 1472 1473 1474 1474 1474 1475 1475 1476 1477 1479 1480 1481 1483
1467 1465 1463 1460 1458 1457 1456 1454 1453 1453 1452 1452 1452 1451 1451 1451 1451 1451 1452 1452 1453 1454 1455 1456 1458 1459 1460 1461 1463 1464 1465 1466 1467 1468 1468 1469 1469 1470 1472 1473 1474 1476 1477
1463 1461 1457 1455 1454 1452 1450 1449 1448 1447 1447 1446 1446 1445 1445 1444 1444 1445 1445 1445 1446 1447 1448 1449 1450 1452 1453 1455 1456 1457 1458 1458 1460 1460 1461 1461 1462 1463 1465 1466 1467 1469 1470
1459 1456 1453 1452 1450 1448 1446 1444 1442 1441 1441 1440 1439 1439 1438 1438 1437 1438 1439 1439 1439 1440 1441 1442 1443 1444 1445 1447 1449 1449 1451 1451 1452 1453 1453 1454 1455 1457 1458 1460 1461 1462 1463
1455 1453 1450 1448 1445 1443 1441 1438 1437 1435 1435 1434 1433 1433 1432 1431 1431 1432 1432 1432 1432 1433 1434 1435 1436 1437 1438 1440 1441 1442 1442 1444 1445 1446 1446 1446 1448 1450 1452 1453 1454 1455 1456
1451 1449 1446 1443 1440 1438 1435 1433 1432 1430 1429 1428 1427 1426 1425 1424 1425 1425 1426 1426 1425 1426 1427 1427 1428 1429 1430 1432 1433 1433 1434 1436 1437 1439 1440 1440 1442 1444 1446 1447 1448 1449 1450
1447 1444 1442 1439 1436 1434 1431 1429 1428 1426 1424 1422 1421 1420 1419 1418 1419 1419 1419 1419 1419 1419 1419 1420 1421 1422 1423 1425 1426 1426 1427 1428 1430 1432 1432 1433 1435 1437 1439 1441 1441 1442 1443
1443 1440 1438 1435 1432 1430 1427 1425 1423 1421 1419 1417 1415 1414 1413 1413 1413 1413 1413 1413 1413 1413 1413 1414 1415 1416 1417 1418 1419 1420 1420 1421 1423 1424 1425 1426 1427 1429 1431 1433 1434 1436 1436
1440 1437 1434 1431 1428 1426 1423 1421 1418 1416 1414 1412 1410 1409 1408 1407 1407 1407 1407 1408 1407 1407 1407 1408 1409 1410 1411 1412 1413 1413 1414 1416 1417 1417 1418 1419 1420 1422 1423 1426 1427 1429 1430
1436 1432 1429 1427 1424 1421 1419 1416 1414 1412 1409 1407 1405 1404 1403 1402 1402 1401 1401 1402 1402 1402 1402 1403 1403 1404 1405 1406 1407 1407 1409 1410 1410 1411 1411 1412 1413 1415 1416 1419 1420 1422 1424
1431 1428 1426 1423 1420 1417 1415 1412 1410 1407 1405 1403 1401 1399 1398 1397 1396 1396 1396 1396 1396 1397 1397 1398 1398 1398 1399 1400 1401 1402 1403 1404 1404 1405 1405 1406 1407 1409 1411 1412 1414 1416 1417
1428 1425 1422 1419 1416 1413 1411 1408 1405 1402 1400 1398 1396 1395 1394 1393 1392 1392 1392 1392 1392 1392 1393 1393 1393 1393 1394 1394 1395 1396 1397 1397 1398 1398 1399 1400 1402 1403 1404 1406 1408 1409 1411
1424 1421 1418 1416 1413 1409 1407 1404 1401 1398 1397 1394 1392 1391 1390 1389 1389 1389 1388 1388 1388 1389 1389 1389 1389 1389 1389 1390 1391 1391 1392 1393 1393 1393 1394 1395 1396 1397 1399 1401 1403 1405 1406
1421 1418 1415 1412 1409 1406 1403 1400 1397 1395 1393 1391 1389 1389 1387 1387 1386 1385 1385 1385 1385 1385 1386 1385 1385 1385 1385 1385 1386 1386 1387 1388 1388 1389 1389 1390 1391 1393 1394 1397 1398 1400 1401
1418 1415 1412 1409 1406 1403 1400 1397 1394 1392 1390 1388 1386 1385 1384 1383 1382 1382 1381 1381 1381 1382 1381 1381 1381 1381 1381 1382 1382 1383 1383 1384 1384 1385 1385 1386 1387 1389 1390 1392 1394 1395 1396
1415 1412 1409 1406 1404 1401 1398 1395 1392 1390 1387 1385 1384 1382 1381 1380 1379 1379 1378 1378 1378 1378 1378 1378 1378 1378 1379 1379 1379 1380 1380 1381 1381 1381 1382 1383 1384 1385 1387 1388 1390 1391 1392
1412 1409 1406 1403 1400 1398 1395 1393 1390 1388 1386 1383 1381 1380 1379 1378 1377 1377 1376 1376 1375 1376 1376 1376 1376 1376 1376 1377 1377 1377 1377 1377 1377 1378 1379 1380 1381 1383 1384 1385 1386 1387 1388
1408 1406 1403 1400 1397 1395 1392 1390 1388 1386 1384 1382 1380 1379 1377 1376 1375 1375 1375 1374 1374 1374 1374 1374 1374 1374 1374 1375 1375 1374 1374 1374 1375 1375 1376 1377 1378 1380 1381 1382 1383 1384 1385
1405 1403 1400 1398 1395 1393 1390 1388 1386 1384 1382 1381 1379 1378 1377 1376 1375 1374 1373 1373 1372 1372 1372 1372 1372 1372 1373 1373 1373 1372 1372 1372 1372 1372 1373 1374 1376 1378 1379 1380 1380 1381 1382
1403 1400 1398 1395 1393 1391 1389 1387 1384 1383 1381 1379 1378 1377 1375 1375 1374 1373 1372 1372 1371 1371 1371 1371 1371 1371 1371 1371 1371 1370 1370 1370 1370 1370 1371 1372 1374 1375 1376 1377 1378 1379 1379
1401 1398 1396 1394 1391 1389 1387 1385 1383 1381 1379 1378 1376 1375 1374 1373 1372 1372 1371 1370 1370 1370 1369 1369 1369 1369 1369 1369 1369 1369 1368 1368 1368 1369 1370 1370 1371 1372 1373 1374 1375 1376 1377
1399 1396 1394 1392 1389 1387 1385 1383 1382 1380 1378 1377 1375 1374 1373 1372 1371 1370 1370 1369 1368 1368 1368 1367 1367 1367 1367 1367 1367 1367 1367 1367 1367 1367 1368 1368 1369 1370 1371 1372 1373 1374 1375
1397 1395 1392 1390 1388 1386 1384 1382 1380 1379 1377 1376 1374 1373 1372 1371 1369 1369 1368 1367 1367 1366 1366 1365 1365 1365 1365 1365 1365 1365 1365 1365 1365 1365 1366 1367 1368 1369 1370 1370 1371 1372 1373
1396 1393 1391 1388 1386 1384 1382 1381 1379 1377 1375 1374 1373 1371 1370 1369 1368 1367 1366 1365 1365 1364 1364 1363 1363 1363 1363 1363 1363 1363 1363 1363 1363 1364 1365 1365 1366 1367 1368 1369 1369 1371 1372